Location: Chamerau
(49.1969°N, 12.7525°E)
Time: 02:26:41
(UTC+00:00)

ATLAS CENTAUR R/B - Pass Details

Date: 18 September 2020
Orbit: 479 x 667 km, 64.7° (Epoch: 12 October)

Event Time Altitude Azimuth Distance (km) Brightness Sun altitude
Rises 17:47:56 0° 254° (WSW) 2,671 6.2 -6.2°
Reaches altitude 10° 17:50:29 10° 269° (W) 1,751 5.5 -6.6°
Maximum altitude 17:53:40 24° 324° (NW) 1,094 3.5 -7.1°
Drops below altitude 10° 17:56:46 10° 19° (NNE) 1,695 3.7 -7.6°
Sets 17:59:13 0° 34° (NE) 2,563 4.5 -8.0°
